�������l�o���
Date,Time,MP-1(��Sv/h),MP-2(��Sv/h),MP-3(��Sv/h),MP-4(��Sv/h),MP-5(��Sv/h),MP-6(��Sv/h),MP-7(��Sv/h),MP-8(��Sv/h),����,����(m/s),���J
2020/07/24,00:00,0.652,0.936,0.589,1.127,0.811,0.393,0.669,0.628,�k�k��,5.1,��
2020/07/24,00:10,0.654,0.936,0.589,1.126,0.810,0.389,0.668,0.628,�k,4.9,��
2020/07/24,00:20,0.653,0.936,0.590,1.126,0.809,0.391,0.666,0.629,�k,3.5,��
2020/07/24,00:30,0.652,0.937,0.590,1.126,0.810,0.392,0.669,0.629,�k�k��,3.0,��
2020/07/24,00:40,0.652,0.938,0.588,1.129,0.812,0.391,0.668,0.628,�k,2.3,��
2020/07/24,00:50,0.653,0.937,0.590,1.127,0.810,0.390,0.669,0.629,�k,2.3,��
2020/07/24,01:00,0.656,0.933,0.589,1.127,0.810,0.391,0.667,0.627,�k,3.8,��
2020/07/24,01:10,0.652,0.937,0.589,1.128,0.812,0.390,0.667,0.626,�k,3.8,��
2020/07/24,01:20,0.655,0.937,0.590,1.129,0.811,0.390,0.668,0.629,�k,4.1,��
2020/07/24,01:30,0.654,0.936,0.588,1.127,0.812,0.392,0.669,0.628,�k,4.0,��
2020/07/24,01:40,0.654,0.937,0.590,1.128,0.811,0.390,0.668,0.629,�k,4.1,��
2020/07/24,01:50,0.655,0.938,0.590,1.128,0.812,0.392,0.668,0.630,�k,3.7,��
2020/07/24,02:00,0.654,0.936,0.590,1.128,0.811,0.390,0.668,0.629,�k,3.1,��
2020/07/24,02:10,0.656,0.934,0.589,1.127,0.813,0.391,0.668,0.630,�k,2.9,��
2020/07/24,02:20,0.655,0.938,0.588,1.124,0.811,0.391,0.669,0.630,�k,3.2,��
2020/07/24,02:30,0.656,0.938,0.589,1.126,0.814,0.391,0.670,0.629,�k�k��,2.2,��
2020/07/24,02:40,0.657,0.937,0.590,1.127,0.812,0.391,0.668,0.630,�k�k��,1.7,��
2020/07/24,02:50,0.654,0.937,0.588,1.126,0.812,0.391,0.669,0.627,�k�k��,2.6,��
2020/07/24,03:00,0.654,0.937,0.589,1.128,0.813,0.390,0.668,0.629,�k��,1.5,��
2020/07/24,03:10,0.655,0.939,0.590,1.127,0.813,0.390,0.669,0.629,�k,0.9,��
2020/07/24,03:20,0.655,0.937,0.590,1.126,0.813,0.391,0.668,0.628,�k�k��,0.6,��
2020/07/24,03:30,0.657,0.938,0.588,1.128,0.810,0.392,0.669,0.629,�k��,1.2,��
2020/07/24,03:40,0.655,0.939,0.589,1.127,0.809,0.391,0.666,0.629,���k��,1.2,��
2020/07/24,03:50,0.656,0.937,0.589,1.128,0.813,0.391,0.669,0.628,�k��,1.1,��
2020/07/24,04:00,0.656,0.936,0.590,1.127,0.812,0.392,0.668,0.630,�k��,0.8,��
2020/07/24,04:10,0.654,0.938,0.590,1.129,0.814,0.392,0.669,0.628,�k�k��,0.9,��
2020/07/24,04:20,0.656,0.936,0.590,1.128,0.813,0.391,0.671,0.629,��,0.8,��
2020/07/24,04:30,0.655,0.936,0.588,1.128,0.813,0.390,0.668,0.629,-,CALM,��
2020/07/24,04:40,0.654,0.936,0.589,1.128,0.813,0.392,0.669,0.629,��,0.9,��
2020/07/24,04:50,0.656,0.934,0.589,1.129,0.811,0.391,0.670,0.629,���k��,1.7,��
2020/07/24,05:00,0.656,0.937,0.589,1.129,0.813,0.392,0.671,0.628,���쐼,1.4,��
2020/07/24,05:10,0.657,0.936,0.589,1.128,0.813,0.392,0.669,0.628,���쐼,1.7,��
2020/07/24,05:20,0.655,0.937,0.591,1.127,0.814,0.391,0.671,0.629,���쐼,1.5,��
2020/07/24,05:30,0.657,0.937,0.589,1.127,0.811,0.391,0.669,0.628,���쐼,1.7,��
2020/07/24,05:40,0.656,0.936,0.588,1.128,0.812,0.391,0.670,0.629,���쐼,1.2,��
2020/07/24,05:50,0.656,0.937,0.589,1.129,0.812,0.392,0.670,0.628,��,0.6,��
2020/07/24,06:00,0.656,0.938,0.589,1.128,0.813,0.393,0.670,0.630,���쐼,1.2,��
2020/07/24,06:10,0.656,0.938,0.589,1.129,0.814,0.392,0.671,0.629,�쐼,0.6,��
2020/07/24,06:20,0.653,0.937,0.586,1.128,0.815,0.390,0.670,0.631,��,0.6,��
2020/07/24,06:30,0.655,0.935,0.587,1.128,0.812,0.393,0.670,0.628,�쐼,0.6,��
2020/07/24,06:40,0.656,0.933,0.586,1.127,0.812,0.393,0.669,0.629,���쐼,0.8,��
2020/07/24,06:50,0.655,0.933,0.588,1.127,0.811,0.392,0.667,0.630,-,CALM,��
2020/07/24,07:00,0.655,0.935,0.587,1.128,0.812,0.391,0.670,0.627,-,CALM,��
2020/07/24,07:10,0.655,0.936,0.587,1.128,0.814,0.390,0.669,0.630,�쓌,0.9,��
2020/07/24,07:20,0.657,0.934,0.588,1.127,0.813,0.390,0.669,0.629,��쐼,0.9,��
2020/07/24,07:30,0.656,0.940,0.591,1.126,0.812,0.391,0.668,0.630,��쐼,1.5,��
2020/07/24,07:40,0.659,0.938,0.590,1.128,0.813,0.390,0.668,0.628,��,0.9,��
2020/07/24,07:50,0.656,0.934,0.589,1.128,0.812,0.390,0.668,0.628,-,CALM,��
2020/07/24,08:00,0.658,0.935,0.588,1.129,0.811,0.392,0.670,0.627,���쓌,1.2,��
2020/07/24,08:10,0.656,0.935,0.588,1.130,0.811,0.393,0.667,0.626,��쓌,1.2,��
2020/07/24,08:20,0.657,0.935,0.589,1.127,0.813,0.393,0.667,0.626,��쓌,1.5,��
2020/07/24,08:30,0.656,0.935,0.588,1.126,0.811,0.392,0.668,0.627,��쓌,1.2,��
2020/07/24,08:40,0.657,0.934,0.589,1.127,0.813,0.392,0.670,0.626,�쓌,1.4,��
2020/07/24,08:50,0.655,0.937,0.586,1.128,0.812,0.391,0.668,0.629,�쓌,1.5,��
2020/07/24,09:00,0.656,0.938,0.589,1.129,0.812,0.391,0.668,0.627,�쓌,1.9,��
2020/07/24,09:10,0.658,0.940,0.589,1.128,0.813,0.393,0.669,0.627,�쓌,2.5,��
2020/07/24,09:20,0.659,0.940,0.589,1.127,0.813,0.393,0.668,0.627,�쓌,2.6,��
2020/07/24,09:30,0.659,0.938,0.588,1.130,0.813,0.394,0.668,0.626,�쓌,2.6,��
2020/07/24,09:40,0.659,0.940,0.590,1.130,0.815,0.393,0.668,0.628,�쓌,2.9,��
2020/07/24,09:50,0.658,0.940,0.590,1.130,0.815,0.394,0.669,0.627,�쓌,3.0,��
2020/07/24,10:00,0.657,0.939,0.589,1.131,0.812,0.396,0.670,0.627,�쓌,3.3,��
2020/07/24,10:10,0.659,0.940,0.590,1.128,0.816,0.394,0.669,0.627,�쓌,4.0,��
2020/07/24,10:20,0.658,0.943,0.590,1.130,0.817,0.395,0.668,0.628,�쓌,3.8,��
2020/07/24,10:30,0.657,0.942,0.592,1.131,0.815,0.395,0.668,0.629,��쓌,4.2,��
2020/07/24,10:40,0.658,0.941,0.590,1.129,0.817,0.394,0.670,0.629,�쓌,4.2,��
2020/07/24,10:50,0.660,0.943,0.592,1.130,0.817,0.395,0.669,0.627,�쓌,3.4,��
2020/07/24,11:00,0.658,0.944,0.593,1.131,0.817,0.395,0.669,0.629,���쓌,4.1,��
2020/07/24,11:10,0.657,0.941,0.592,1.131,0.815,0.395,0.670,0.626,�쓌,4.6,��
2020/07/24,11:20,0.659,0.944,0.593,1.130,0.816,0.395,0.671,0.630,�쓌,5.1,��
2020/07/24,11:30,0.658,0.946,0.591,1.132,0.818,0.395,0.670,0.628,�쓌,4.6,��
2020/07/24,11:40,0.658,0.946,0.593,1.133,0.816,0.394,0.672,0.626,�쓌,4.0,��
2020/07/24,11:50,0.660,0.948,0.593,1.129,0.818,0.395,0.669,0.629,�쓌,5.3,��
2020/07/24,12:00,0.659,0.950,0.593,1.130,0.818,0.394,0.670,0.629,��쓌,3.3,��
2020/07/24,12:10,0.659,0.949,0.593,1.130,0.820,0.395,0.672,0.628,��쓌,6.1,��
2020/07/24,12:20,0.658,0.947,0.591,1.132,0.817,0.394,0.672,0.629,��쓌,4.3,��
2020/07/24,12:30,0.660,0.949,0.593,1.133,0.818,0.396,0.669,0.627,��쓌,4.4,��
2020/07/24,12:40,0.659,0.947,0.593,1.130,0.818,0.396,0.671,0.628,�쓌,3.5,��
2020/07/24,12:50,0.660,0.948,0.591,1.131,0.818,0.394,0.669,0.630,��쓌,5.1,��
2020/07/24,13:00,0.659,0.948,0.593,1.133,0.820,0.395,0.670,0.628,�쓌,3.3,��
2020/07/24,13:10,0.660,0.951,0.593,1.131,0.819,0.394,0.670,0.629,���쓌,4.0,��
2020/07/24,13:20,0.661,0.948,0.594,1.131,0.820,0.396,0.670,0.629,�쓌,3.6,��
2020/07/24,13:30,0.658,0.948,0.590,1.131,0.819,0.396,0.669,0.629,�쓌,3.9,��
2020/07/24,13:40,0.659,0.946,0.590,1.130,0.819,0.394,0.670,0.629,���쓌,3.4,��
2020/07/24,13:50,0.660,0.949,0.594,1.131,0.821,0.395,0.670,0.629,�쓌,1.9,��
2020/07/24,14:00,0.658,0.949,0.592,1.132,0.818,0.394,0.671,0.629,�쓌,2.3,��
2020/07/24,14:10,0.658,0.950,0.592,1.133,0.819,0.394,0.671,0.629,�쓌,2.6,��
2020/07/24,14:20,0.659,0.950,0.593,1.134,0.819,0.393,0.670,0.629,�쓌,3.1,��
2020/07/24,14:30,0.659,0.950,0.593,1.130,0.819,0.394,0.670,0.629,�쓌,3.1,��
2020/07/24,14:40,0.660,0.950,0.593,1.133,0.820,0.395,0.670,0.628,��쓌,2.0,��
2020/07/24,14:50,0.659,0.950,0.595,1.132,0.818,0.394,0.670,0.627,�쓌,2.9,��
2020/07/24,15:00,0.659,0.950,0.593,1.132,0.820,0.394,0.672,0.627,��쓌,2.6,��
2020/07/24,15:10,0.659,0.951,0.592,1.132,0.819,0.394,0.670,0.629,��쓌,2.0,��
2020/07/24,15:20,0.660,0.950,0.592,1.131,0.818,0.393,0.671,0.629,�쓌,1.7,��
2020/07/24,15:30,0.661,0.951,0.592,1.132,0.820,0.395,0.670,0.629,�쓌,2.6,��
2020/07/24,15:40,0.658,0.952,0.595,1.131,0.819,0.394,0.670,0.629,��쓌,2.3,�L
2020/07/24,15:50,0.659,0.953,0.592,1.131,0.820,0.394,0.670,0.628,��쓌,2.3,�L
2020/07/24,16:00,0.659,0.950,0.593,1.130,0.820,0.395,0.670,0.629,��쓌,1.5,�L
2020/07/24,16:10,0.659,0.952,0.594,1.134,0.820,0.396,0.672,0.628,��쓌,1.7,�L
2020/07/24,16:20,0.660,0.953,0.593,1.132,0.819,0.394,0.670,0.630,��쓌,2.2,�L
2020/07/24,16:30,0.658,0.948,0.591,1.131,0.817,0.395,0.668,0.627,��쓌,2.3,�L
2020/07/24,16:40,0.658,0.943,0.592,1.134,0.817,0.394,0.669,0.626,��,3.1,�L
2020/07/24,16:50,0.657,0.944,0.593,1.131,0.814,0.394,0.669,0.627,��,2.6,�L
2020/07/24,17:00,0.657,0.942,0.590,1.132,0.814,0.395,0.668,0.626,��쓌,2.2,�L
2020/07/24,17:10,0.654,0.941,0.590,1.131,0.813,0.394,0.670,0.627,��,1.7,�L
2020/07/24,17:20,0.653,0.938,0.589,1.129,0.813,0.393,0.668,0.625,��,2.2,�L
2020/07/24,17:30,0.653,0.936,0.586,1.129,0.811,0.394,0.667,0.626,��,2.9,�L
2020/07/24,17:40,0.653,0.934,0.588,1.130,0.811,0.394,0.667,0.626,��,2.6,�L
2020/07/24,17:50,0.652,0.933,0.586,1.129,0.807,0.392,0.666,0.626,��,3.6,�L
2020/07/24,18:00,0.652,0.932,0.585,1.127,0.808,0.394,0.667,0.627,��,3.3,�L
2020/07/24,18:10,0.649,0.930,0.585,1.127,0.806,0.394,0.667,0.625,��,3.0,�L
2020/07/24,18:20,0.650,0.929,0.584,1.124,0.804,0.393,0.665,0.624,��쓌,2.5,�L
2020/07/24,18:30,0.650,0.930,0.585,1.125,0.804,0.391,0.665,0.623,��쓌,3.5,�L
2020/07/24,18:40,0.649,0.926,0.584,1.124,0.802,0.393,0.662,0.625,��,2.9,�L
2020/07/24,18:50,0.650,0.927,0.586,1.120,0.802,0.393,0.663,0.623,��,2.2,�L
2020/07/24,19:00,0.649,0.927,0.585,1.122,0.801,0.393,0.664,0.623,��쐼,1.9,�L
2020/07/24,19:10,0.649,0.926,0.583,1.119,0.803,0.392,0.664,0.624,��,1.5,�L
2020/07/24,19:20,0.649,0.923,0.584,1.120,0.801,0.392,0.663,0.623,��쐼,2.0,�L
2020/07/24,19:30,0.649,0.924,0.585,1.117,0.802,0.393,0.663,0.624,��쐼,1.5,�L
2020/07/24,19:40,0.649,0.921,0.585,1.115,0.800,0.390,0.663,0.623,�쐼,1.5,�L
2020/07/24,19:50,0.647,0.922,0.585,1.117,0.800,0.391,0.663,0.623,�쐼,1.7,�L
2020/07/24,20:00,0.647,0.920,0.583,1.115,0.799,0.392,0.661,0.622,-,CALM,�L
2020/07/24,20:10,0.645,0.921,0.584,1.113,0.799,0.392,0.662,0.621,��,1.2,�L
2020/07/24,20:20,0.645,0.919,0.583,1.115,0.798,0.391,0.663,0.622,��,0.8,�L
2020/07/24,20:30,0.644,0.920,0.584,1.114,0.798,0.390,0.664,0.623,��,0.6,�L
2020/07/24,20:40,0.647,0.921,0.582,1.114,0.798,0.392,0.662,0.623,��,0.8,�L
2020/07/24,20:50,0.646,0.918,0.582,1.114,0.801,0.393,0.662,0.622,��쐼,0.6,�L
2020/07/24,21:00,0.643,0.920,0.582,1.111,0.799,0.391,0.663,0.621,��쐼,0.9,�L
2020/07/24,21:10,0.644,0.918,0.580,1.113,0.798,0.392,0.662,0.622,��쐼,1.7,�L
2020/07/24,21:20,0.645,0.916,0.582,1.113,0.798,0.391,0.662,0.621,��쐼,2.0,�L
2020/07/24,21:30,0.646,0.919,0.581,1.109,0.799,0.391,0.663,0.620,��쐼,2.3,�L
2020/07/24,21:40,0.644,0.918,0.582,1.113,0.797,0.390,0.661,0.622,��,2.6,�L
2020/07/24,21:50,0.644,0.916,0.581,1.112,0.797,0.391,0.662,0.622,��,2.6,�L
2020/07/24,22:00,0.644,0.917,0.581,1.109,0.796,0.390,0.662,0.621,��쐼,2.6,�L
2020/07/24,22:10,0.647,0.917,0.582,1.112,0.797,0.392,0.664,0.623,��쐼,3.1,�L
2020/07/24,22:20,0.645,0.916,0.582,1.112,0.799,0.391,0.662,0.623,��쐼,3.1,�L
2020/07/24,22:30,0.645,0.918,0.582,1.111,0.797,0.392,0.663,0.622,��쐼,3.4,�L
2020/07/24,22:40,0.646,0.918,0.582,1.112,0.798,0.392,0.662,0.624,��쐼,3.6,�L
2020/07/24,22:50,0.645,0.921,0.583,1.111,0.796,0.393,0.663,0.623,��쐼,3.9,�L
2020/07/24,23:00,0.647,0.917,0.582,1.112,0.797,0.392,0.662,0.622,��,4.3,�L
2020/07/24,23:10,0.645,0.916,0.584,1.108,0.796,0.392,0.663,0.623,��,3.7,�L
2020/07/24,23:20,0.644,0.918,0.581,1.111,0.797,0.393,0.662,0.623,��,3.2,�L
2020/07/24,23:30,0.646,0.915,0.582,1.111,0.796,0.392,0.662,0.621,��,2.9,�L
2020/07/24,23:40,0.646,0.915,0.581,1.109,0.796,0.393,0.663,0.621,��쐼,2.6,�L
2020/07/24,23:50,0.645,0.916,0.581,1.110,0.797,0.392,0.662,0.620,��쐼,2.5,�L
